Weather History for KANW - October, 2011

Change the Weather History Date:

Monday, October 3, 2011

  Actual Average Record
Temperature  
Mean Temperature 67 °F -  
Max Temperature 84 °F 65 °F 84 °F (2011)
Min Temperature 50 °F 41 °F 33 °F (1999)
Cooling Degree Days 2    
Growing Degree Days 17 (Base 50)    
Moisture  
Dew Point 40 °F    
Average Humidity 41    
Maximum Humidity 62    
Minimum Humidity 22    
Precipitation  
Precipitation 0.00 in - - ()
Sea Level Pressure  
Sea Level Pressure 30.05 in    
Wind  
Wind Speed 12 mph (SSE)    
Max Wind Speed 17 mph    
Max Gust Speed 21 mph    
Visibility 10 miles    
Events      
Averages and records for this station are not official NWS values.
T = Trace of Precipitation, MM = Missing Value Source: NWS Daily Summary

Daily Weather History Graph

Daily Weather History Graph

Search for Another Location

Airport or City:

Trip Planner

Search our weather history database for the weather conditions in past years. The results will help you decide how hot, cold, wet, or windy it might be!

Date:

Astronomy

Oct. 03, 2011 Rise Set
Actual Time 7:39 AM CDT 7:18 PM CDT
Civil Twilight 7:10 AM CDT 7:46 PM CDT
Nautical Twilight 6:38 AM CDT 8:18 PM CDT
Astronomical Twilight 6:05 AM CDT 8:51 PM CDT
Moon 2:45 PM CDT (10/3) No Moon Set
Length of Visible Light 12h 35m
Length of Day
11h 39m
Waxing Crescent, 45% of the Moon is Illuminated
Oct 3
Waxing Crescent
Oct 3
First Quarter
Oct 11
Full
Oct 19
Last Quarter
Oct 26
New

Hourly Weather History & Observations

Time (CDT) Temp. Dew Point Humidity Pressure Visibility Wind Dir Wind Speed Gust Speed Precip Events Conditions
12:15 AM 60.8 °F 37.4 °F 42% 30.06 in 10.0 mi South 17.3 mph - N/A   Clear
12:35 AM 59.0 °F 37.4 °F 45% 30.07 in 10.0 mi South 12.7 mph - N/A   Clear
12:55 AM 57.2 °F 37.4 °F 48% 30.07 in 10.0 mi South 9.2 mph - N/A   Clear
1:15 AM 57.2 °F 37.4 °F 48% 30.07 in 10.0 mi South 9.2 mph - N/A   Clear
1:35 AM 59.0 °F 37.4 °F 45% 30.07 in 10.0 mi South 10.4 mph - N/A   Clear
1:55 AM 59.0 °F 37.4 °F 45% 30.06 in 10.0 mi South 12.7 mph - N/A   Clear
2:15 AM 59.0 °F 37.4 °F 45% 30.05 in 10.0 mi South 12.7 mph - N/A   Clear
3:15 AM 55.4 °F 37.4 °F 51% 30.04 in 10.0 mi South 11.5 mph - N/A   Clear
3:35 AM 53.6 °F 37.4 °F 54% 30.04 in 10.0 mi South 11.5 mph - N/A   Clear
3:55 AM 53.6 °F 37.4 °F 54% 30.04 in 10.0 mi South 9.2 mph - N/A   Clear
4:15 AM 55.4 °F 37.4 °F 51% 30.04 in 10.0 mi South 11.5 mph - N/A   Clear
4:35 AM 53.6 °F 37.4 °F 54% 30.05 in 10.0 mi South 9.2 mph - N/A   Clear
4:55 AM 53.6 °F 37.4 °F 54% 30.05 in 10.0 mi South 9.2 mph - N/A   Clear
5:15 AM 53.6 °F 37.4 °F 54% 30.05 in 10.0 mi South 10.4 mph - N/A   Clear
5:35 AM 53.6 °F 37.4 °F 54% 30.05 in 10.0 mi South 8.1 mph - N/A   Clear
5:55 AM 51.8 °F 37.4 °F 58% 30.05 in 10.0 mi South 9.2 mph - N/A   Clear
6:15 AM 51.8 °F 37.4 °F 58% 30.05 in 10.0 mi South 10.4 mph - N/A   Clear
6:35 AM 50.0 °F 37.4 °F 62% 30.06 in 10.0 mi South 9.2 mph - N/A   Clear
6:55 AM 50.0 °F 37.4 °F 62% 30.05 in 10.0 mi South 11.5 mph - N/A   Clear
7:15 AM 50.0 °F 37.4 °F 62% 30.05 in 10.0 mi South 10.4 mph - N/A   Clear
7:35 AM 50.0 °F 37.4 °F 62% 30.06 in 10.0 mi South 10.4 mph - N/A   Clear
7:55 AM 50.0 °F 37.4 °F 62% 30.06 in 10.0 mi South 10.4 mph - N/A   Clear
8:15 AM 51.8 °F 37.4 °F 58% 30.07 in 10.0 mi South 8.1 mph - N/A   Clear
8:35 AM 53.6 °F 39.2 °F 58% 30.07 in 10.0 mi South 9.2 mph - N/A   Clear
8:55 AM 53.6 °F 39.2 °F 58% 30.07 in 10.0 mi South 11.5 mph - N/A   Clear
9:15 AM 57.2 °F 41.0 °F 55% 30.07 in 10.0 mi South 8.1 mph - N/A   Clear
9:35 AM 60.8 °F 39.2 °F 45% 30.08 in 10.0 mi South 12.7 mph - N/A   Clear
9:55 AM 60.8 °F 39.2 °F 45% 30.08 in 10.0 mi South 13.8 mph - N/A   Clear
10:15 AM 62.6 °F 39.2 °F 42% 30.08 in 10.0 mi South 12.7 mph - N/A   Clear
10:35 AM 64.4 °F 41.0 °F 42% 30.08 in 10.0 mi South 12.7 mph - N/A   Clear
10:55 AM 66.2 °F 41.0 °F 40% 30.08 in 10.0 mi South 9.2 mph - N/A   Clear
11:15 AM 69.8 °F 41.0 °F 35% 30.08 in 10.0 mi South 10.4 mph - N/A   Clear
11:35 AM 69.8 °F 41.0 °F 35% 30.07 in 10.0 mi South 13.8 mph - N/A   Clear
11:55 AM 71.6 °F 41.0 °F 33% 30.07 in 10.0 mi South 10.4 mph - N/A   Clear
12:15 PM 73.4 °F 41.0 °F 31% 30.07 in 10.0 mi SSE 11.5 mph - N/A   Clear
12:35 PM 77.0 °F 41.0 °F 28% 30.07 in 10.0 mi South 9.2 mph - N/A   Clear
12:55 PM 77.0 °F 41.0 °F 28% 30.06 in 10.0 mi South 8.1 mph - N/A   Clear
1:15 PM 78.8 °F 41.0 °F 26% 30.05 in 10.0 mi SSE 15.0 mph - N/A   Clear
1:35 PM 80.6 °F 42.8 °F 26% 30.05 in 10.0 mi South 13.8 mph - N/A   Clear
1:55 PM 80.6 °F 41.0 °F 24% 30.04 in 10.0 mi SSE 11.5 mph - N/A   Clear
2:15 PM 82.4 °F 41.0 °F 23% 30.03 in 10.0 mi SSE 16.1 mph - N/A   Clear
2:35 PM 82.4 °F 41.0 °F 23% 30.03 in 10.0 mi SSE 13.8 mph - N/A   Clear
2:55 PM 82.4 °F 41.0 °F 23% 30.02 in 10.0 mi SSE 13.8 mph 20.7 mph N/A   Clear
3:15 PM 82.4 °F 41.0 °F 23% 30.02 in 10.0 mi South 13.8 mph - N/A   Clear
3:35 PM 84.2 °F 41.0 °F 22% 30.02 in 10.0 mi SSE 15.0 mph - N/A   Clear
3:55 PM 84.2 °F 41.0 °F 22% 30.02 in 10.0 mi SSE 15.0 mph - N/A   Clear
4:15 PM 82.4 °F 41.0 °F 23% 30.02 in 10.0 mi SSE 12.7 mph - N/A   Clear
4:35 PM 82.4 °F 41.0 °F 23% 30.02 in 10.0 mi SSE 13.8 mph - N/A   Clear
4:55 PM 82.4 °F 41.0 °F 23% 30.02 in 10.0 mi SE 10.4 mph 18.4 mph N/A   Clear
5:15 PM 82.4 °F 41.0 °F 23% 30.01 in 10.0 mi SE 15.0 mph - N/A   Clear
5:35 PM 82.4 °F 42.8 °F 25% 30.02 in 10.0 mi SSE 11.5 mph - N/A   Clear
5:55 PM 80.6 °F 42.8 °F 26% 30.02 in 10.0 mi SSE 12.7 mph 17.3 mph N/A   Clear
6:15 PM 78.8 °F 42.8 °F 28% 30.02 in 10.0 mi SE 11.5 mph - N/A   Clear
6:35 PM 77.0 °F 42.8 °F 29% 30.02 in 10.0 mi SE 8.1 mph - N/A   Clear
6:55 PM 73.4 °F 42.8 °F 33% 30.02 in 10.0 mi SE 9.2 mph - N/A   Clear
7:15 PM 69.8 °F 44.6 °F 40% 30.02 in 10.0 mi SE 6.9 mph - N/A   Clear
7:35 PM 68.0 °F 44.6 °F 43% 30.03 in 10.0 mi ESE 4.6 mph - N/A   Clear
7:55 PM 64.4 °F 44.6 °F 49% 30.03 in 10.0 mi SE 8.1 mph - N/A   Clear
8:15 PM 64.4 °F 44.6 °F 49% 30.03 in 10.0 mi SE 8.1 mph - N/A   Clear
8:35 PM 64.4 °F 44.6 °F 49% 30.03 in 10.0 mi SE 9.2 mph - N/A   Clear
8:55 PM 62.6 °F 44.6 °F 52% 30.03 in 10.0 mi SE 8.1 mph - N/A   Clear
9:15 PM 62.6 °F 44.6 °F 52% 30.03 in 10.0 mi SE 6.9 mph - N/A   Clear
9:35 PM 60.8 °F 44.6 °F 55% 30.04 in 10.0 mi SSE 6.9 mph - N/A   Clear
9:55 PM 59.0 °F 42.8 °F 55% 30.04 in 10.0 mi SSE 8.1 mph - N/A   Clear
10:15 PM 60.8 °F 44.6 °F 55% 30.04 in 10.0 mi SSE 10.4 mph - N/A   Clear
10:35 PM 62.6 °F 44.6 °F 52% 30.04 in 10.0 mi SSE 12.7 mph - N/A   Clear
10:55 PM 62.6 °F 44.6 °F 52% 30.03 in 10.0 mi SSE 10.4 mph - N/A   Clear
11:15 PM 62.6 °F 44.6 °F 52% 30.03 in 10.0 mi SSE 9.2 mph - N/A   Clear
11:35 PM 62.6 °F 44.6 °F 52% 30.03 in 10.0 mi South 9.2 mph - N/A   Clear
11:55 PM 62.6 °F 42.8 °F 48% 30.03 in 10.0 mi SSE 10.4 mph - N/A   Clear